[[{"header":{"parameterUnit":"m.s-1","parameterCategory":1,"la1":30.2991,"la2":30.254,"lo1":-89.0895,"lo2":-89.0444,"dy":0.0017,"dx":0.0017,"nx":28,"ny":28,"refTime":"2024-06-15T09:00:00:Z","depth":0,"parameterNumber":2,"parameterNumberName":"U-component_of_WINDS"},"data":[0,0,0,0,0,0,0,0,0,0,0,0,0,0,0,0,0,0,0,0,0,0,0,0,0,0,0,0,0,0,0,0,0,0,0,0,0,0,0,0,0,0,0,0,0,0,0,0,0,0,0,0,0,0,0,0,0,0,-1.9988,-1.9988,0,-2.0001,-2.0002,-2.0002,-2.0034,-2.0035,-2.0036,-2.0036,-2.0048,-2.0048,-2.0048,0,0,0,0,0,0,0,0,0,0,0,0,0,-1.999,-1.9989,-1.9988,-1.9988,-1.9988,-2.0001,-2.0002,-2.0002,-2.0034,-2.0035,-2.0036,-2.0037,-2.0049,-2.0048,-2.0048,0,0,0,0,0,0,0,0,0,0,0,0,0,-1.9994,-1.9989,-1.9988,-2.0006,-2.0008,-2.0001,-2.0002,-2.0002,-2.0034,-2.0035,-2.0036,-2.0037,-2.0049,-2.0048,-2.0048,-2.0024,0,0,-2.0046,-2.0046,0,0,0,0,0,0,0,0,-1.9994,-1.9994,-2.0003,-2.0005,-2.0007,-2.0017,-2.0007,-2.0009,-2.0034,-2.0024,-2.0037,-2.0038,-2.0037,-2.0038,-2.0038,-2.0025,-2.0025,-2.0046,-2.0046,-2.0046,-2.0046,0,0,0,0,0,0,0,-1.9994,-1.9994,-1.9993,-2.0003,-2.0005,-2.0013,-2.0015,-2.0007,-2.0025,-2.0025,-2.0027,-2.0029,-2.0038,-2.0038,-2.0038,-2.0025,-2.0046,-2.0046,-2.0045,-2.0045,-1.9995,-1.9994,0,0,0,0,0,0,-1.9991,-1.9993,-1.9993,-1.9994,-2.0003,-2.0013,-2.0015,-2.0013,-2.0025,-2.0028,-2.0028,-2.003,-2.0039,-2.0039,-2.0039,-2.0013,-2.0046,-2.0045,-2.0045,-1.9996,-1.9994,-1.9993,0,0,0,0,0,0,-1.9991,-1.9991,-1.9992,-1.9994,-1.9995,-2.0011,-2.0009,-2.0013,-2.0013,-2.0027,-2.003,-2.0025,-2.0039,-2.004,-2.0028,-2.0014,-2.0045,-2.0045,-1.9997,-1.9995,-1.9994,-1.996,0,0,0,0,0,0,-1.9991,-1.999,-1.9982,-1.9994,-1.9995,-1.9981,-2.0008,-2.0012,-2.0012,-2.0015,-2.0025,-2.0027,-2.004,-2.0029,-2.0027,-2.0014,-2.0044,-1.9998,-1.9996,-1.9994,-1.9963,-1.9958,-1.9954,0,0,0,0,0,-1.9991,-1.9971,-1.9981,-1.9981,-1.9984,-1.998,-1.9981,-1.9997,-2.0011,-2.0002,-2.0011,-2.0027,-2.0016,-2.0027,-2.0026,-2.0012,-1.9999,-1.9997,-1.9995,-1.9965,-1.9959,-1.9954,0,0,0,0,0,0,-1.9955,-1.9973,-1.9984,-1.9968,-1.9972,-1.9986,-1.9975,-1.9989,-1.999,-1.9993,-2.0012,-2.0014,-2.0,-2.0005,-2.0017,-1.9991,-2.001,-2.0007,-1.9988,-1.9982,-1.9978,-1.9977,-2.0044,0,0,0,0,0,-1.9946,-1.9942,-1.9957,-1.9941,-1.9943,-1.9959,-1.9957,-1.9969,-1.9975,-1.9977,-1.9985,-1.9989,-1.9987,-1.9985,-1.9983,-1.9964,-1.9967,-1.9954,-1.9949,-1.9945,-1.9943,-1.9934,-1.9929,-1.9986,-1.9986,-1.9986,0,0,-1.9926,-1.9935,-1.9931,-1.9934,-1.9939,-1.9934,-1.996,-1.9953,-1.995,-1.9975,-1.9965,-1.9972,-1.9978,-1.9963,-1.9956,-1.9966,-1.9928,-1.9942,-1.9939,-1.9939,-1.9931,-1.9926,-1.9921,-1.9984,-1.9984,-1.9985,0,0,-1.9887,-1.9893,-1.9881,-1.9886,-1.9894,-1.9905,-1.9902,-1.9914,-1.9919,-1.991,-1.9929,-1.9925,-1.992,-1.9924,-1.9925,-1.989,-1.9904,-1.9888,-1.9864,-1.9856,-1.9851,-1.9847,-1.9835,-1.9831,-1.9886,-1.9886,-1.9886,0,-1.9861,-1.9855,-1.9873,-1.9866,-1.9867,-1.9891,-1.9879,-1.9883,-1.9889,-1.9889,-1.9901,-1.9896,-1.9902,-1.9888,-1.988,-1.988,-1.9878,-1.9887,-1.9851,-1.9847,-1.9843,-1.9832,-1.9828,-1.9884,-1.9884,-1.9884,-1.9884,0,-1.9823,-1.9819,-1.9808,-1.9815,-1.9815,-1.9805,-1.9822,-1.982,-1.9832,-1.9842,-1.9832,-1.984,-1.9841,-1.9839,-1.985,-1.9827,-1.9833,-1.9847,-1.9867,-1.9836,-1.9826,-1.9822,-1.9881,-1.9882,-1.9882,-1.9883,0,0,-1.9762,-1.978,-1.9776,-1.978,-1.9791,-1.9788,-1.9779,-1.9781,-1.978,-1.9783,-1.9777,-1.9773,-1.9787,-1.9788,-1.98,-1.9792,-1.9765,-1.9808,-1.9808,-1.98,-1.9741,-1.9731,-1.9726,-1.9775,-1.9774,-1.9773,-1.9741,0,-1.9727,-1.9714,-1.9731,-1.9715,-1.9711,-1.9734,-1.9727,-1.9733,-1.9742,-1.974,-1.975,-1.9748,-1.9765,-1.9766,-1.976,-1.977,-1.9753,-1.9772,-1.9769,-1.9769,-1.9768,-1.9721,-1.971,-1.9679,-1.9737,-1.9737,-1.9736,0,-1.9683,-1.9686,-1.967,-1.9684,-1.9683,-1.9676,-1.968,-1.9678,-1.9685,-1.9692,-1.9695,-1.971,-1.9702,-1.9722,-1.9713,-1.9725,-1.9725,-1.973,-1.9729,-1.973,-1.9751,-1.9721,-1.9669,-1.9665,-1.973,-1.973,-1.9731,0,-1.9642,-1.9642,-1.9633,-1.9635,-1.965,-1.9645,-1.9651,-1.9659,-1.966,-1.9663,-1.9663,-1.9665,-1.9666,-1.9667,-1.9682,-1.9695,-1.9672,-1.9692,-1.9678,-1.9677,-1.9672,-1.9672,-1.962,-1.967,-1.9671,-1.9671,-1.9671,0,-1.9601,-1.959,-1.9614,-1.9609,-1.9598,-1.9617,-1.9605,-1.9613,-1.9621,-1.9617,-1.9637,-1.9633,-1.9653,-1.9651,-1.9662,-1.9654,-1.9654,-1.9659,-1.9663,-1.9658,-1.9657,-1.9659,-1.9661,-1.9669,-1.967,-1.967,-1.967,0,-1.9553,-1.9568,-1.956,-1.9575,-1.9579,-1.957,-1.9583,-1.9578,-1.9589,-1.9584,-1.9584,-1.9601,-1.96,-1.9615,-1.9616,-1.9624,-1.961,-1.9617,-1.9608,-1.9611,-1.9596,-1.9597,-1.9543,-1.9538,-1.9591,-1.959,-1.959,0,-1.9526,-1.9519,-1.9533,-1.9533,-1.9538,-1.9536,-1.9538,-1.9556,-1.9556,-1.9565,-1.9559,-1.956,-1.9562,-1.9559,-1.9571,-1.9573,-1.958,-1.9561,-1.958,-1.9576,-1.9581,-1.9581,-1.9581,-1.9557,-1.9556,-1.9556,-1.9555,0,-1.9477,-1.9486,-1.9487,-1.9491,-1.9491,-1.9495,-1.95,-1.9498,-1.9519,-1.9518,-1.9518,-1.9519,-1.9522,-1.9522,-1.9526,-1.9532,-1.9547,-1.9549,-1.9546,-1.9542,-1.9537,-1.954,-1.9598,-1.955,-1.9551,-1.9551,-1.9552,-1.9552,-1.944,-1.9435,-1.9445,-1.9446,-1.9451,-1.9456,-1.9453,-1.9464,-1.9464,-1.9468,-1.9479,-1.9477,-1.9485,-1.9492,-1.9497,-1.9496,-1.9505,-1.95,-1.9499,-1.9498,-1.9495,-1.9537,-1.9496,-1.9496,-1.9496,-1.9497,-1.9497,0,-1.9393,-1.9401,-1.9401,-1.9408,-1.9409,-1.9424,-1.943,-1.943,-1.9428,-1.9435,-1.9437,-1.9437,-1.9438,-1.945,-1.9453,-1.9449,-1.9456,-1.9449,-1.945,-1.9451,-1.9486,-1.9489,-1.9444,-1.9444,-1.9444,-1.9444,-1.9444,-1.9444,-1.9369,-1.9362,-1.9371,-1.9367,-1.9375,-1.9374,-1.9377,-1.9381,-1.9387,-1.9386,-1.9388,-1.9396,-1.9405,-1.9409,-1.941,-1.9414,-1.9414,-1.9405,-1.9411,-1.9444,-1.9449,-1.9454,-1.9457,-1.9405,-1.9405,-1.9376,-1.9376,-1.9376]},{"header":{"parameterUnit":"m.s-1","parameterCategory":1,"la1":30.2991,"la2":30.254,"lo1":-89.0895,"lo2":-89.0444,"dy":0.0017,"dx":0.0017,"nx":28,"ny":28,"refTime":"2024-06-15T09:00:00:Z","depth":0,"parameterNumber":3,"parameterNumberName":"V-component_of_WINDS"},"data":[0,0,0,0,0,0,0,0,0,0,0,0,0,0,0,0,0,0,0,0,0,0,0,0,0,0,0,0,0,0,0,0,0,0,0,0,0,0,0,0,0,0,0,0,0,0,0,0,0,0,0,0,0,0,0,0,0,0,10.0659,10.0661,0,10.0803,10.0805,10.0806,10.0713,10.0709,10.0705,10.07,10.0837,10.0845,10.0852,0,0,0,0,0,0,0,0,0,0,0,0,0,10.0292,10.03,10.0659,10.0661,10.0663,10.0803,10.0805,10.0807,10.0714,10.0709,10.0703,10.0699,10.0835,10.0844,10.0853,0,0,0,0,0,0,0,0,0,0,0,0,0,10.0445,10.0302,10.0659,10.0634,10.0633,10.0803,10.0805,10.0807,10.0715,10.0709,10.0702,10.0696,10.0832,10.0843,10.0854,10.1054,0,0,10.0889,10.0894,0,0,0,0,0,0,0,0,10.0437,10.0459,10.0635,10.0636,10.0635,10.0734,10.0726,10.089,10.0717,10.0683,10.07,10.0693,10.0807,10.082,10.0861,10.106,10.1066,10.089,10.0897,10.0902,10.0905,0,0,0,0,0,0,0,10.0426,10.0452,10.0716,10.0638,10.0638,10.0611,10.0626,10.0756,10.0779,10.0686,10.0679,10.0698,10.0806,10.085,10.0864,10.1068,10.089,10.09,10.0907,10.0912,10.1434,10.1441,0,0,0,0,0,0,10.0419,10.0444,10.0711,10.072,10.0518,10.0623,10.0639,10.0708,10.0778,10.0782,10.0704,10.0693,10.0834,10.085,10.0868,10.1104,10.0902,10.0913,10.0919,10.1427,10.1436,10.1443,0,0,0,0,0,0,10.0412,10.0444,10.0705,10.058,10.0612,10.0636,10.0714,10.0715,10.0759,10.0791,10.0794,10.0746,10.083,10.0852,10.1008,10.1107,10.0918,10.0928,10.1419,10.143,10.144,10.1579,0,0,0,0,0,0,10.0402,10.0442,10.0521,10.0583,10.0619,10.0847,10.0721,10.0722,10.078,10.0768,10.0831,10.0835,10.0826,10.0992,10.102,10.112,10.0937,10.141,10.1424,10.1436,10.1565,10.1593,10.1616,0,0,0,0,0,10.0389,10.0552,10.0525,10.0558,10.0718,10.0853,10.0873,10.0862,10.0789,10.0866,10.0887,10.0833,10.1093,10.1009,10.1039,10.1144,10.1404,10.142,10.1435,10.1554,10.1587,10.1616,0,0,0,0,0,0,10.0497,10.056,10.0531,10.072,10.0782,10.0837,10.0934,10.0898,10.0979,10.0964,10.0944,10.0959,10.1122,10.1149,10.1054,10.1339,10.1236,10.1259,10.1316,10.1348,10.1373,10.1362,10.0947,0,0,0,0,0,10.0544,10.0652,10.0699,10.0861,10.0894,10.091,10.0968,10.0954,10.1016,10.1041,10.1073,10.1132,10.1226,10.1289,10.1378,10.157,10.158,10.1657,10.1682,10.1703,10.1722,10.1822,10.1856,10.1495,10.1495,10.1495,0,0,10.064,10.0687,10.0756,10.0884,10.0931,10.1039,10.0932,10.1051,10.113,10.1058,10.1208,10.1233,10.1298,10.1472,10.1551,10.15,10.1824,10.1723,10.1739,10.1747,10.1842,10.1876,10.1906,10.1506,10.1504,10.1502,0,0,10.0869,10.0918,10.1057,10.1107,10.1181,10.1189,10.1223,10.1284,10.1299,10.145,10.1398,10.1489,10.1654,10.1701,10.1747,10.1995,10.1948,10.2024,10.2156,10.2254,10.2282,10.2307,10.2393,10.2424,10.2043,10.2044,10.2044,0,10.0978,10.1143,10.1133,10.1257,10.1313,10.1257,10.1395,10.1442,10.154,10.1578,10.1521,10.1725,10.1764,10.1948,10.2009,10.2049,10.2083,10.2016,10.228,10.2305,10.2328,10.2409,10.2442,10.2052,10.2051,10.2051,10.205,0,10.1271,10.1386,10.1489,10.1588,10.1656,10.1787,10.1793,10.1863,10.1843,10.1857,10.201,10.2056,10.2152,10.2195,10.2176,10.2376,10.2342,10.2283,10.2178,10.2371,10.2447,10.2478,10.2065,10.2062,10.2059,10.2057,0,0,10.1571,10.1664,10.1702,10.1745,10.1822,10.1909,10.2035,10.2133,10.2192,10.2261,10.2363,10.2504,10.245,10.2502,10.2488,10.2575,10.2765,10.2505,10.2506,10.2549,10.2984,10.3026,10.3063,10.2736,10.2742,10.2746,10.2978,0,10.1803,10.2028,10.2023,10.223,10.2334,10.2282,10.2391,10.2448,10.2465,10.2552,10.2568,10.2668,10.2591,10.2621,10.2705,10.2724,10.2851,10.2708,10.2827,10.2831,10.281,10.3103,10.3148,10.3364,10.3008,10.3013,10.3016,0,10.2104,10.2186,10.2405,10.2466,10.2509,10.2608,10.2696,10.2782,10.2844,10.285,10.2909,10.2881,10.3005,10.29,10.3068,10.2971,10.3019,10.3036,10.3044,10.3052,10.2934,10.3116,10.3433,10.3464,10.3063,10.306,10.3056,0,10.2297,10.2462,10.2614,10.2653,10.2729,10.2799,10.2833,10.289,10.2948,10.3024,10.3061,10.315,10.3198,10.3265,10.3261,10.3185,10.3431,10.3326,10.3436,10.3436,10.3488,10.3484,10.3814,10.3524,10.3524,10.3523,10.3522,0,10.2555,10.269,10.2702,10.2795,10.2944,10.2935,10.3081,10.3107,10.3158,10.3252,10.3212,10.3301,10.3291,10.3379,10.3376,10.3514,10.3537,10.3542,10.3539,10.3544,10.3543,10.3573,10.3557,10.3532,10.353,10.3528,10.3526,0,10.2795,10.2809,10.2971,10.303,10.3048,10.3155,10.3203,10.3289,10.3303,10.3423,10.345,10.347,10.3572,10.3575,10.369,10.3688,10.3857,10.3838,10.3837,10.3832,10.3941,10.393,10.43,10.4347,10.4029,10.4032,10.4035,0,10.2958,10.3061,10.3132,10.3194,10.3233,10.3333,10.3394,10.3388,10.3452,10.3531,10.3607,10.3706,10.3784,10.3949,10.3971,10.4059,10.404,10.4164,10.4053,10.4054,10.4039,10.4032,10.404,10.4184,10.4188,10.4191,10.4193,0,10.3243,10.3246,10.3336,10.343,10.3504,10.3576,10.3643,10.3695,10.3697,10.377,10.3876,10.3937,10.4057,10.4154,10.4239,10.4269,10.4231,10.4229,10.4258,10.4263,10.4257,10.4259,10.3893,10.4219,10.4217,10.4215,10.4213,10.4212,10.3448,10.3536,10.36,10.3702,10.3753,10.3816,10.39,10.3925,10.4014,10.4114,10.4104,10.4221,10.4278,10.4389,10.4427,10.4515,10.4472,10.4516,10.4526,10.4536,10.4547,10.4246,10.4531,10.453,10.453,10.4529,10.4529,0,10.3729,10.3768,10.3862,10.3959,10.4038,10.4,10.4071,10.4139,10.4243,10.4302,10.4381,10.4501,10.4595,10.4626,10.4716,10.4781,10.4765,10.4804,10.4798,10.4805,10.4582,10.4546,10.4815,10.4815,10.4815,10.4815,10.4815,10.4815,10.3884,10.4032,10.4042,10.4212,10.4249,10.4366,10.441,10.4467,10.4513,10.4651,10.473,10.4751,10.4797,10.4891,10.4974,10.498,10.5014,10.5061,10.5059,10.485,10.4821,10.4793,10.4759,10.5069,10.5069,10.5274,10.5276,10.5278]}]]